| time (UTC) | temp F | wind direction | speed MPH | gust MPH | rain 1hr in | rain 24hr in | rain mn in | humidity % | barometer mb |
| 20260503224709 | 70 | 275 | 2.0 | 2.0 | 0.00 | 0.00 | 0.00 | 42 | 4253.5 |
| 20260503223704 | 71 | 246 | 1.0 | 1.0 | 0.00 | 0.00 | 0.00 | 40 | 4253.6 |
| 20260503222703 | 72 | 315 | 1.0 | 1.0 | 0.00 | 0.00 | 0.00 | 41 | 4253.6 |
| 20260503221659 | 71 | 288 | 3.0 | 3.0 | 0.00 | 0.00 | 0.00 | 44 | 4253.7 |
| 20260503220659 | 72 | 347 | 0.0 | 0.0 | 0.00 | 0.00 | 0.00 | 39 | 4253.9 |
| 20260503215658 | 72 | 276 | 3.0 | 3.0 | 0.00 | 0.00 | 0.00 | 40 | 4253.8 |
| 20260503214654 | 69 | 5 | 1.0 | 1.0 | 0.00 | 0.00 | 0.00 | 42 | 4254.1 |
| 20260503213649 | 71 | 305 | 2.0 | 2.0 | 0.00 | 0.00 | 0.00 | 43 | 4254.1 |
| 20260503212648 | 71 | 21 | 1.0 | 2.0 | 0.00 | 0.00 | 0.00 | 43 | 4254.1 |
| 20260503211643 | 69 | 315 | 2.0 | 2.0 | 0.00 | 0.00 | 0.00 | 42 | 4254.1 |
| 20260503210641 | 70 | 336 | 3.0 | 5.0 | 0.00 | 0.00 | 0.00 | 43 | 4254.4 |
| 20260503205639 | 73 | 203 | 2.0 | 3.0 | 0.00 | 0.00 | 0.00 | 39 | 4254.4 |
| 20260503204637 | 71 | 342 | 0.0 | 1.0 | 0.00 | 0.00 | 0.00 | 45 | 4254.7 |
| 20260503203637 | 69 | 305 | 4.0 | 6.0 | 0.00 | 0.00 | 0.00 | 46 | 4254.7 |
| 20260503202632 | 70 | 5 | 7.0 | 8.0 | 0.00 | 0.00 | 0.00 | 41 | 4254.8 |
| 20260503201628 | 71 | 359 | 2.0 | 2.0 | 0.00 | 0.00 | 0.00 | 43 | 4255.1 |
| 20260503200627 | 70 | 332 | 2.0 | 2.0 | 0.00 | 0.00 | 0.00 | 43 | 4255.3 |
| 20260503195627 | 71 | 8 | 4.0 | 5.0 | 0.00 | 0.00 | 0.00 | 41 | 4255.6 |
| 20260503194626 | 72 | 235 | 2.0 | 5.0 | 0.00 | 0.00 | 0.00 | 40 | 4255.8 |
| 20260503193624 | 69 | 9 | 3.0 | 5.0 | 0.00 | 0.00 | 0.00 | 43 | 4255.9 |
| 20260503192622 | 68 | 354 | 2.0 | 2.0 | 0.00 | 0.00 | 0.00 | 40 | 4256.2 |
| 20260503191620 | 67 | 45 | 4.0 | 5.0 | 0.00 | 0.00 | 0.00 | 45 | 4256.4 |
| 20260503190620 | 66 | 16 | 3.0 | 5.0 | 0.00 | 0.00 | 0.00 | 45 | 4256.5 |
| 20260503185620 | 67 | 33 | 7.0 | 8.0 | 0.00 | 0.00 | 0.00 | 46 | 4256.7 |
| 20260503184615 | 66 | 9 | 6.0 | 8.0 | 0.00 | 0.00 | 0.00 | 45 | 4256.9 |
| 20260503183614 | 66 | 3 | 3.0 | 5.0 | 0.00 | 0.00 | 0.00 | 44 | 4257.0 |
| 20260503182610 | 66 | 14 | 2.0 | 3.0 | 0.00 | 0.00 | 0.00 | 45 | 4257.1 |
| 20260503181610 | 66 | 45 | 2.0 | 3.0 | 0.00 | 0.00 | 0.00 | 47 | 4257.2 |
| 20260503180610 | 65 | 18 | 3.0 | 3.0 | 0.00 | 0.00 | 0.00 | 45 | 4257.3 |
| 20260503175610 | 65 | 10 | 3.0 | 3.0 | 0.00 | 0.00 | 0.00 | 45 | 4257.2 |
| 20260503174610 | 65 | 22 | 3.0 | 3.0 | 0.00 | 0.00 | 0.00 | 47 | 4257.7 |
| 20260503173608 | 64 | 32 | 3.0 | 3.0 | 0.00 | 0.00 | 0.00 | 48 | 4257.8 |
| 20260503172608 | 64 | 8 | 5.0 | 6.0 | 0.00 | 0.00 | 0.00 | 44 | 4257.8 |
| 20260503171608 | 64 | 1 | 5.0 | 6.0 | 0.00 | 0.00 | 0.00 | 42 | 4258.2 |
| 20260503170608 | 63 | 43 | 3.0 | 6.0 | 0.00 | 0.00 | 0.00 | 45 | 4258.2 |
| 20260503150548 | 59 | 21 | 3.0 | 3.0 | 0.00 | 0.00 | 0.00 | 69 | 4259.0 |
| 20260503130533 | 53 | 52 | 1.0 | 1.0 | 0.00 | 0.00 | 0.00 | 92 | 4258.8 |
| 20260503110504 | 42 | 225 | 2.0 | 2.0 | 0.00 | 0.00 | 0.00 | 99 | 4257.6 |
| 20260503090431 | 46 | 229 | 1.0 | 1.0 | 0.00 | 0.00 | 0.00 | 95 | 4256.9 |
| 20260503081422 | 50 | 22 | 2.0 | 2.0 | 0.00 | 0.00 | 0.00 | 91 | 4256.5 |
| 20260503080421 | 50 | 31 | 1.0 | 1.0 | 0.00 | 0.00 | 0.00 | 91 | 4256.6 |
| 20260503072413 | 51 | 45 | 3.0 | 5.0 | 0.00 | 0.00 | 0.00 | 90 | 4256.4 |
| 20260503071413 | 51 | 23 | 2.0 | 3.0 | 0.00 | 0.00 | 0.00 | 89 | 4256.4 |
| 20260503070412 | 51 | 27 | 2.0 | 3.0 | 0.00 | 0.00 | 0.00 | 89 | 4256.5 |
| 20260503054350 | 53 | 37 | 2.0 | 2.0 | 0.00 | 0.00 | 0.00 | 80 | 4256.5 |
| 20260503053346 | 53 | 27 | 2.0 | 2.0 | 0.00 | 0.00 | 0.00 | 79 | 4256.5 |
| 20260503052345 | 54 | 41 | 3.0 | 3.0 | 0.00 | 0.00 | 0.00 | 80 | 4256.4 |
| 20260503051343 | 54 | 1 | 5.0 | 6.0 | 0.00 | 0.00 | 0.00 | 77 | 4256.4 |
| 20260503050342 | 54 | 31 | 1.0 | 2.0 | 0.00 | 0.00 | 0.00 | 75 | 4256.2 |
| 20260503045337 | 54 | 10 | 3.0 | 5.0 | 0.00 | 0.00 | 0.00 | 78 | 4256.2 |
| 20260503044336 | 54 | 25 | 3.0 | 3.0 | 0.00 | 0.00 | 0.00 | 76 | 4256.0 |
| 20260503043336 | 54 | 16 | 3.0 | 3.0 | 0.00 | 0.00 | 0.00 | 75 | 4256.1 |
| 20260503042335 | 54 | 28 | 3.0 | 5.0 | 0.00 | 0.00 | 0.00 | 78 | 4256.2 |
| 20260503041334 | 55 | 19 | 4.0 | 5.0 | 0.00 | 0.00 | 0.00 | 73 | 4256.0 |
| 20260503040329 | 55 | 48 | 3.0 | 3.0 | 0.00 | 0.00 | 0.00 | 74 | 4256.0 |
| 20260503035328 | 55 | 50 | 2.0 | 2.0 | 0.00 | 0.00 | 0.00 | 75 | 4255.9 |
| 20260503034328 | 55 | 41 | 3.0 | 3.0 | 0.00 | 0.00 | 0.00 | 72 | 4255.7 |
| 20260503033328 | 56 | 2 | 4.0 | 7.0 | 0.00 | 0.00 | 0.00 | 74 | 4255.9 |
| 20260503032325 | 56 | 37 | 2.0 | 2.0 | 0.00 | 0.00 | 0.00 | 73 | 4255.9 |
| 20260503031320 | 57 | 0 | 5.0 | 7.0 | 0.00 | 0.00 | 0.00 | 74 | 4255.8 |
| 20260503030318 | 57 | 32 | 5.0 | 6.0 | 0.00 | 0.00 | 0.00 | 73 | 4255.6 |
| 20260503025318 | 57 | 42 | 3.0 | 5.0 | 0.00 | 0.00 | 0.00 | 72 | 4255.3 |
| 20260503024317 | 58 | 38 | 5.0 | 6.0 | 0.00 | 0.00 | 0.00 | 72 | 4255.2 |
| 20260503023317 | 59 | 19 | 5.0 | 8.0 | 0.00 | 0.00 | 0.00 | 72 | 4255.0 |
| 20260503022314 | 59 | 36 | 4.0 | 5.0 | 0.00 | 0.00 | 0.00 | 70 | 4254.7 |
| 20260503021313 | 59 | 53 | 6.0 | 7.0 | 0.00 | 0.00 | 0.00 | 70 | 4254.4 |
| 20260503020308 | 60 | 43 | 14.0 | 16.0 | 0.00 | 0.00 | 0.00 | 67 | 4254.3 |
| 20260503015307 | 61 | 39 | 11.0 | 15.0 | 0.00 | 0.00 | 0.00 | 66 | 4254.0 |
| 20260503014307 | 62 | 2 | 7.0 | 9.0 | 0.00 | 0.00 | 0.00 | 56 | 4253.8 |
| 20260503013301 | 63 | 25 | 7.0 | 8.0 | 0.00 | 0.00 | 0.00 | 54 | 4253.5 |
| 20260503012301 | 63 | 357 | 9.0 | 9.0 | 0.00 | 0.00 | 0.00 | 54 | 4253.2 |
| 20260503011301 | 64 | 4 | 7.0 | 7.0 | 0.00 | 0.00 | 0.00 | 56 | 4253.1 |
| 20260503010300 | 64 | 342 | 9.0 | 10.0 | 0.00 | 0.00 | 0.00 | 50 | 4253.0 |
| 20260503005255 | 64 | 4 | 7.0 | 8.0 | 0.00 | 0.00 | 0.00 | 56 | 4252.9 |
| 20260503004255 | 64 | 40 | 3.0 | 6.0 | 0.00 | 0.00 | 0.00 | 55 | 4252.7 |
| 20260503003254 | 65 | 2 | 8.0 | 9.0 | 0.00 | 0.00 | 0.00 | 53 | 4252.5 |
| 20260503002254 | 65 | 358 | 7.0 | 8.0 | 0.00 | 0.00 | 0.00 | 54 | 4252.6 |
| 20260503001253 | 65 | 37 | 9.0 | 10.0 | 0.00 | 0.00 | 0.00 | 53 | 4252.3 |
| 20260503000253 | 65 | 342 | 3.0 | 5.0 | 0.00 | 0.00 | 0.00 | 50 | 4252.1 |
| 20260502235248 | 66 | 4 | 11.0 | 13.0 | 0.00 | 0.00 | 0.00 | 52 | 4252.1 |
| 20260502234247 | 66 | 333 | 12.0 | 13.0 | 0.00 | 0.00 | 0.00 | 53 | 4252.0 |
| 20260502233246 | 67 | 14 | 12.0 | 15.0 | 0.00 | 0.00 | 0.00 | 51 | 4252.0 |
| 20260502232245 | 67 | 358 | 9.0 | 9.0 | 0.00 | 0.00 | 0.00 | 51 | 4251.7 |
| 20260502231240 | 67 | 357 | 11.0 | 13.0 | 0.00 | 0.00 | 0.00 | 50 | 4251.9 |
| 20260502230236 | 67 | 339 | 7.0 | 8.0 | 0.00 | 0.00 | 0.00 | 47 | 4251.9 |